[[{"header":{"parameterUnit":"m.s-1","parameterCategory":1,"la1":30.2991,"la2":30.254,"lo1":-89.0895,"lo2":-89.0444,"dy":0.0017,"dx":0.0017,"nx":28,"ny":28,"refTime":"2024-12-09T03:00:00:Z","depth":0,"parameterNumber":2,"parameterNumberName":"U-component_of_WINDS"},"data":[0,0,0,0,0,0,0,0,0,0,0,0,0,0,0,0,0,0,0,0,0,0,0,0,0,0,0,0,0,0,0,0,0,0,0,0,0,0,0,0,0,0,0,0,0,0,0,0,0,0,0,0,0,0,0,0,0,0,1.4711,1.4712,0,1.474,1.474,1.4741,1.4697,1.4696,1.4694,1.4693,1.4726,1.4728,1.473,0,0,0,0,0,0,0,0,0,0,0,0,0,1.4623,1.4625,1.4711,1.4712,1.4712,1.474,1.474,1.4741,1.4698,1.4696,1.4694,1.4692,1.4725,1.4728,1.4731,0,0,0,0,0,0,0,0,0,0,0,0,0,1.4657,1.4625,1.4711,1.4694,1.4692,1.474,1.474,1.4741,1.4698,1.4696,1.4693,1.4691,1.4724,1.4728,1.4731,1.4798,0,0,1.4742,1.4743,0,0,0,0,0,0,0,0,1.4656,1.4661,1.4696,1.4695,1.4694,1.4713,1.4721,1.476,1.4698,1.4696,1.4693,1.469,1.4724,1.4727,1.4737,1.4799,1.4801,1.4742,1.4744,1.4745,1.4746,0,0,0,0,0,0,0,1.4653,1.4659,1.4723,1.4697,1.4695,1.4686,1.4688,1.4728,1.4722,1.4696,1.4693,1.4697,1.4723,1.4734,1.4738,1.4801,1.4742,1.4745,1.4747,1.4748,1.4921,1.4923,0,0,0,0,0,0,1.4652,1.4658,1.4722,1.4724,1.4668,1.4689,1.4692,1.4709,1.4722,1.4721,1.4699,1.4695,1.4729,1.4734,1.4739,1.4819,1.4745,1.4749,1.4751,1.4918,1.4921,1.4924,0,0,0,0,0,0,1.4651,1.4659,1.4721,1.469,1.4697,1.4693,1.4713,1.4711,1.4722,1.4724,1.4723,1.4711,1.4728,1.4734,1.4783,1.4819,1.475,1.4753,1.4915,1.4919,1.4923,1.4979,0,0,0,0,0,0,1.4648,1.4658,1.4683,1.4691,1.4699,1.4764,1.4715,1.4713,1.4728,1.4723,1.4735,1.4735,1.4727,1.4779,1.4787,1.4823,1.4756,1.4912,1.4917,1.4921,1.4974,1.4984,1.4993,0,0,0,0,0,1.4645,1.4698,1.4684,1.4692,1.4729,1.4766,1.4771,1.4758,1.4731,1.4756,1.4757,1.4735,1.4814,1.4784,1.4793,1.4831,1.491,1.4916,1.4921,1.497,1.4982,1.4993,0,0,0,0,0,0,1.4696,1.4699,1.4683,1.474,1.4753,1.4759,1.479,1.4772,1.4794,1.4788,1.4773,1.4776,1.483,1.4835,1.4802,1.4896,1.4857,1.4865,1.4891,1.4903,1.4912,1.4911,1.4759,0,0,0,0,0,1.4713,1.4742,1.4743,1.4793,1.48,1.4794,1.481,1.4799,1.4812,1.4818,1.4822,1.4837,1.4865,1.4884,1.491,1.4974,1.4977,1.5004,1.5014,1.5022,1.5029,1.5064,1.5077,1.4943,1.4942,1.4942,0,0,1.475,1.4755,1.4774,1.4803,1.4812,1.4843,1.4799,1.4834,1.4857,1.4824,1.487,1.4874,1.489,1.4947,1.4972,1.4953,1.5066,1.5029,1.5035,1.5038,1.5071,1.5084,1.5095,1.4946,1.4946,1.4945,0,0,1.4833,1.484,1.4882,1.4892,1.4905,1.4901,1.4911,1.4919,1.492,1.4967,1.4942,1.497,1.5019,1.5031,1.5044,1.5132,1.5113,1.5141,1.5191,1.5226,1.5236,1.5246,1.5278,1.529,1.5148,1.5148,1.5148,0,1.4878,1.4923,1.4907,1.4943,1.4957,1.4927,1.4971,1.4981,1.5003,1.5014,1.4991,1.5052,1.506,1.512,1.5141,1.5152,1.5165,1.514,1.5236,1.5245,1.5254,1.5285,1.5297,1.5151,1.5151,1.5151,1.515,0,1.4977,1.5009,1.5042,1.5063,1.508,1.512,1.5112,1.5132,1.5119,1.5118,1.5166,1.5175,1.5202,1.5215,1.5204,1.5274,1.5262,1.5238,1.5199,1.527,1.5299,1.5311,1.5156,1.5155,1.5154,1.5153,0,0,1.5094,1.5105,1.5118,1.5127,1.514,1.5164,1.5203,1.5229,1.5247,1.5263,1.5297,1.5338,1.5316,1.533,1.532,1.535,1.5421,1.5323,1.5323,1.5342,1.55,1.5519,1.5533,1.5408,1.541,1.5412,1.5499,0,1.5177,1.5244,1.5231,1.5297,1.5326,1.5298,1.5332,1.5344,1.5344,1.537,1.537,1.54,1.5368,1.5376,1.5405,1.5406,1.5453,1.54,1.544,1.5442,1.5439,1.5548,1.5568,1.5651,1.551,1.5512,1.5514,0,1.5284,1.5303,1.5372,1.538,1.5392,1.5423,1.5446,1.5471,1.5485,1.5482,1.5498,1.5482,1.5523,1.5482,1.5538,1.5502,1.5518,1.5521,1.5524,1.5528,1.5483,1.5557,1.5676,1.5689,1.5531,1.553,1.5529,0,1.5364,1.5407,1.5453,1.5462,1.5473,1.5496,1.5501,1.5513,1.5529,1.5549,1.556,1.5585,1.56,1.562,1.5612,1.5583,1.567,1.5628,1.5671,1.5671,1.5691,1.5691,1.5817,1.5699,1.5699,1.5699,1.5699,0,1.5459,1.5503,1.5489,1.5518,1.5566,1.5551,1.56,1.5602,1.5612,1.5642,1.5619,1.5648,1.5635,1.5663,1.5657,1.5705,1.5711,1.5711,1.571,1.5714,1.5715,1.5726,1.572,1.5702,1.5702,1.5701,1.57,0,1.5557,1.5549,1.5599,1.5605,1.5607,1.5643,1.5648,1.5676,1.5673,1.5711,1.572,1.5716,1.5748,1.5742,1.5777,1.5773,1.5834,1.5824,1.5829,1.5827,1.5871,1.5867,1.6009,1.6028,1.5897,1.5899,1.59,0,1.5618,1.5651,1.5661,1.5679,1.5686,1.5715,1.5732,1.5718,1.5737,1.5755,1.5781,1.581,1.5834,1.5886,1.5888,1.5915,1.5907,1.5955,1.5911,1.5915,1.5909,1.5908,1.5912,1.5964,1.5965,1.5967,1.5967,0,1.573,1.5725,1.5749,1.5773,1.5793,1.5811,1.5827,1.5843,1.5831,1.5854,1.5885,1.5903,1.5939,1.597,1.5995,1.6002,1.5984,1.5981,1.5993,1.5998,1.6,1.6001,1.5854,1.5978,1.5977,1.5976,1.5976,1.5975,1.5812,1.584,1.5851,1.588,1.589,1.5906,1.5932,1.5933,1.5959,1.5987,1.5977,1.6014,1.6028,1.606,1.607,1.6099,1.6081,1.6098,1.6102,1.6107,1.6113,1.5995,1.6104,1.6103,1.6103,1.6103,1.6102,0,1.5923,1.5929,1.5955,1.5978,1.6001,1.598,1.5997,1.6017,1.605,1.6063,1.6087,1.6124,1.6153,1.6157,1.6185,1.6208,1.62,1.6216,1.6215,1.6217,1.6126,1.6114,1.6222,1.6222,1.6222,1.6222,1.6222,1.6222,1.5983,1.603,1.6027,1.6079,1.6084,1.612,1.6131,1.6146,1.6157,1.62,1.6224,1.6225,1.6236,1.6264,1.6291,1.6291,1.6303,1.6322,1.632,1.6235,1.6223,1.6212,1.6201,1.6325,1.6325,1.6409,1.6409,1.641]},{"header":{"parameterUnit":"m.s-1","parameterCategory":1,"la1":30.2991,"la2":30.254,"lo1":-89.0895,"lo2":-89.0444,"dy":0.0017,"dx":0.0017,"nx":28,"ny":28,"refTime":"2024-12-09T03:00:00:Z","depth":0,"parameterNumber":3,"parameterNumberName":"V-component_of_WINDS"},"data":[0,0,0,0,0,0,0,0,0,0,0,0,0,0,0,0,0,0,0,0,0,0,0,0,0,0,0,0,0,0,0,0,0,0,0,0,0,0,0,0,0,0,0,0,0,0,0,0,0,0,0,0,0,0,0,0,0,0,3.8112,3.8113,0,3.8175,3.8176,3.8176,3.8159,3.8158,3.8156,3.8155,3.8219,3.8221,3.8224,0,0,0,0,0,0,0,0,0,0,0,0,0,3.7977,3.798,3.8112,3.8113,3.8114,3.8175,3.8176,3.8177,3.8159,3.8158,3.8156,3.8155,3.8218,3.8221,3.8225,0,0,0,0,0,0,0,0,0,0,0,0,0,3.8037,3.798,3.8112,3.8112,3.8113,3.8175,3.8176,3.8177,3.8159,3.8157,3.8156,3.8154,3.8217,3.8221,3.8225,3.829,0,0,3.8238,3.824,0,0,0,0,0,0,0,0,3.8034,3.8042,3.8112,3.8113,3.8113,3.8157,3.8151,3.8215,3.816,3.8142,3.8155,3.8153,3.82,3.8205,3.8221,3.8293,3.8296,3.8239,3.8241,3.8243,3.8244,0,0,0,0,0,0,0,3.803,3.8039,3.8137,3.8113,3.8114,3.8109,3.8116,3.8163,3.8181,3.8143,3.8142,3.815,3.82,3.8217,3.8223,3.8296,3.8238,3.8242,3.8245,3.8247,3.8425,3.8427,0,0,0,0,0,0,3.8025,3.8036,3.8135,3.8139,3.8068,3.8113,3.8121,3.8145,3.818,3.8184,3.8151,3.8149,3.8211,3.8218,3.8225,3.8304,3.8243,3.8247,3.825,3.8423,3.8425,3.8428,0,0,0,0,0,0,3.8022,3.8034,3.8132,3.8087,3.8099,3.8118,3.8145,3.8147,3.8165,3.8186,3.8189,3.8166,3.8209,3.8219,3.8274,3.8306,3.8249,3.8253,3.842,3.8424,3.8427,3.8462,0,0,0,0,0,0,3.8018,3.8033,3.8058,3.8088,3.8102,3.8181,3.8147,3.815,3.8172,3.8169,3.8201,3.8204,3.8209,3.8268,3.8278,3.8311,3.8256,3.8418,3.8422,3.8426,3.8458,3.8466,3.8473,0,0,0,0,0,3.8014,3.8065,3.8059,3.8071,3.8134,3.8183,3.8191,3.8195,3.8175,3.82,3.8214,3.8203,3.83,3.8273,3.8285,3.832,3.8416,3.8421,3.8425,3.8455,3.8465,3.8473,0,0,0,0,0,0,3.8038,3.8069,3.8063,3.8126,3.8152,3.818,3.8212,3.8205,3.8238,3.8234,3.8237,3.8245,3.8302,3.8316,3.8285,3.8384,3.8355,3.8362,3.8373,3.8383,3.839,3.8386,3.826,0,0,0,0,0,3.8051,3.8089,3.8114,3.8167,3.818,3.8194,3.8215,3.8217,3.8244,3.8255,3.8272,3.8299,3.8336,3.836,3.8394,3.8459,3.8467,3.8489,3.8496,3.8502,3.8509,3.8546,3.8556,3.8444,3.8444,3.8444,0,0,3.8078,3.81,3.8123,3.8172,3.8193,3.8232,3.8203,3.8246,3.8275,3.8261,3.8315,3.8329,3.8358,3.8419,3.8447,3.8433,3.8541,3.8508,3.8513,3.8517,3.8552,3.8562,3.8572,3.8447,3.8446,3.8446,0,0,3.8148,3.8167,3.8214,3.8235,3.8266,3.8275,3.8286,3.8315,3.8324,3.8378,3.8369,3.8403,3.8466,3.8488,3.8507,3.8584,3.8576,3.8595,3.8635,3.867,3.8679,3.8687,3.8716,3.8726,3.8602,3.8602,3.8602,0,3.8177,3.8236,3.8239,3.8283,3.8305,3.8294,3.8342,3.8362,3.8403,3.8418,3.8402,3.848,3.8499,3.8566,3.8585,3.86,3.8614,3.8593,3.8678,3.8686,3.8693,3.8721,3.8731,3.8604,3.8604,3.8604,3.8604,0,3.8272,3.8313,3.8347,3.8387,3.8413,3.8458,3.8468,3.8494,3.8492,3.8503,3.8558,3.858,3.862,3.8635,3.8634,3.8702,3.8692,3.8676,3.8647,3.8706,3.8732,3.8743,3.8608,3.8607,3.8606,3.8605,0,0,3.836,3.8401,3.8414,3.8433,3.8466,3.8498,3.8542,3.8581,3.8604,3.8632,3.867,3.8723,3.8709,3.8731,3.8732,3.8763,3.8824,3.8743,3.8744,3.8759,3.8901,3.8914,3.8926,3.8818,3.882,3.8821,3.8899,0,3.8434,3.8513,3.8517,3.859,3.8628,3.8618,3.8657,3.8681,3.8692,3.8726,3.8737,3.8776,3.8753,3.8767,3.8796,3.881,3.8853,3.8804,3.8854,3.8856,3.8849,3.894,3.8954,3.9026,3.8909,3.8911,3.8912,0,3.8531,3.8563,3.8639,3.8668,3.8684,3.8719,3.8755,3.8788,3.8815,3.8821,3.8845,3.8842,3.8887,3.8855,3.8919,3.8886,3.8906,3.8915,3.8918,3.8925,3.8889,3.895,3.9049,3.9061,3.8928,3.8927,3.8926,0,3.859,3.8651,3.8705,3.8721,3.8756,3.8781,3.8796,3.8822,3.8845,3.8876,3.8892,3.8927,3.8947,3.8975,3.8981,3.8957,3.9045,3.9013,3.9052,3.9052,3.9073,3.9072,3.9178,3.9083,3.9082,3.9082,3.9082,0,3.8673,3.872,3.8733,3.8766,3.8819,3.8822,3.8875,3.8888,3.8911,3.8947,3.8939,3.8973,3.8978,3.9013,3.9018,3.9071,3.9079,3.9085,3.9086,3.9087,3.9087,3.9102,3.9098,3.9085,3.9084,3.9084,3.9083,0,3.8748,3.8758,3.8817,3.8844,3.8852,3.889,3.8914,3.8946,3.8955,3.9001,3.9011,3.9026,3.9067,3.9075,3.9123,3.9126,3.919,3.9185,3.9181,3.9181,3.922,3.9217,3.9341,3.9359,3.925,3.9251,3.9252,0,3.8802,3.8838,3.887,3.8893,3.891,3.8948,3.8972,3.8976,3.9002,3.9036,3.9064,3.9104,3.9136,3.9201,3.9217,3.9253,3.925,3.9291,3.9256,3.9256,3.9253,3.9252,3.9256,3.9299,3.93,3.9301,3.9302,0,3.8896,3.8899,3.8934,3.8971,3.9,3.9029,3.9057,3.9076,3.9084,3.9113,3.9155,3.918,3.9229,3.9269,3.9306,3.9321,3.9313,3.9312,3.9324,3.9326,3.9323,3.9327,3.9201,3.931,3.9309,3.9309,3.9308,3.9308,3.8963,3.8995,3.9023,3.9063,3.9084,3.911,3.9142,3.9155,3.919,3.9231,3.9231,3.9277,3.9304,3.9352,3.937,3.9406,3.9393,3.9408,3.9413,3.9417,3.9422,3.9315,3.9412,3.9412,3.9411,3.9411,3.9411,0,3.9058,3.9076,3.9112,3.9151,3.9182,3.9172,3.9202,3.9228,3.9269,3.9295,3.9327,3.9375,3.9414,3.9431,3.9469,3.9495,3.9492,3.9505,3.9504,3.9508,3.943,3.9418,3.9506,3.9506,3.9506,3.9506,3.9506,3.9506,3.9112,3.9167,3.9173,3.9238,3.9255,3.9301,3.9319,3.9343,3.9363,3.9418,3.945,3.9461,3.9484,3.9524,3.9559,3.9563,3.9578,3.9593,3.9595,3.9523,3.9513,3.9504,3.9492,3.9595,3.9595,3.967,3.9671,3.9671]}]]